Regional Weather Roundup
Issued by NWS Portland, ME

Home | Current Version | Previous Version | Text Only | Print | Product List | Glossary On
Versions: 1 2 3 4 5 6 7 8 9 10 11 12 13 14 15 16 17 18 19 20 21 22 23 24 25 26 27 28 29 30 31 32 33 34 35 36 37 38 39 40 41 42 43 44 45 46 47 48 49 50
000
ASUS41 KGYX 231205
RWRGYX
WEATHER ROUNDUP FOR MAINE AND NEW HAMPSHIRE
NATIONAL WEATHER SERVICE GRAY ME
800 AM EDT SAT AUG 23 2014

MEZ002-005-006-010-012-015-018-020-021-024-026-027-029-231300-
MAINE

CITY           SKY/WX    TMP DP  RH WIND       PRES   REMARKS
PORTLAND       CLOUDY    63  58  83 N7        30.14S
6HR MIN TEMP:  55; 6HR MAX TEMP:  63;

SANFORD        CLOUDY    59  54  82 N5        30.15R
BAR HARBOR     MOSUNNY   64  61  88 NE8       30.13F
WISCASSET      CLOUDY    64  60  87 CALM      30.16R
6HR MIN TEMP:  58; 6HR MAX TEMP:  64;

ROCKLAND       CLOUDY    64  59  82 NE7       30.13R
FRYEBURG       CLOUDY    58  57  97 CALM      30.17S
6HR MIN TEMP:  54; 6HR MAX TEMP:  58;

LEWISTONAUBURN CLOUDY    61  55  82 CALM      30.16R
AUGUSTA        CLOUDY    63  57  81 N6        30.16R
6HR MIN TEMP:  60; 6HR MAX TEMP:  63;

WATERVILLE     CLOUDY    63  57  82 N6        30.12S
BANGOR         PTSUNNY   64  56  75 NE7       30.16R
6HR MIN TEMP:  62; 6HR MAX TEMP:  65;

GREENVILLE       N/A     62  54  74 N7        30.16S
6HR MIN TEMP:  57; 6HR MAX TEMP:  62;

MILLINOCKET    CLOUDY    63  57  81 CALM      30.18R
6HR MIN TEMP:  58; 6HR MAX TEMP:  63;

HOULTON        CLOUDY    61  56  83 CALM      30.16S
6HR MIN TEMP:  55; 6HR MAX TEMP:  61;

PRESQUE ISLE   CLOUDY    59  55  88 CALM      30.16S
6HR MIN TEMP:  54; 6HR MAX TEMP:  59;

FRENCHVILLE    FOG       55  55 100 N3        30.17S VSB<1/4
6HR MIN TEMP:  51; 6HR MAX TEMP:  57;

CARIBOU        CLOUDY    62  58  86 CALM      30.16F
6HR MIN TEMP:  54; 6HR MAX TEMP:  62;

$$

NHZ002-005-008-009-011-012-014-231300-
NEW HAMPSHIRE

CITY           SKY/WX    TMP DP  RH WIND       PRES   REMARKS
PORTSMOUTH     PTSUNNY   63  56  78 N5        30.13R
ROCHESTER      CLOUDY    60  57  89 N6        30.14R
6HR MIN TEMP:  54; 6HR MAX TEMP:  60;

NASHUA         MOSUNNY   62  57  83 CALM      30.15R
MANCHESTER     MOSUNNY   63  56  78 N6        30.13R
6HR MIN TEMP:  60; 6HR MAX TEMP:  63;

CONCORD        MOSUNNY   62  58  86 NW3       30.15S
6HR MIN TEMP:  54; 6HR MAX TEMP:  62;

LACONIA        SUNNY     63  55  77 CALM      30.15R
PLYMOUTH       CLOUDY    57  57 100 W5        30.17R
BERLIN         FOG       54  54 100 CALM      30.20R VSB 1/4
6HR MIN TEMP:  54; 6HR MAX TEMP:  56;

WHITEFIELD     FOG       56  55  97 CALM      30.18S VSB 1/2
6HR MIN TEMP:  52; 6HR MAX TEMP:  59;

JAFFREY        CLOUDY    60  56  86 VRB3      30.16S
6HR MIN TEMP:  57; 6HR MAX TEMP:  60;

LEBANON        CLOUDY    61  57  87 NE6       30.16S
6HR MIN TEMP:  61; 6HR MAX TEMP:  62;

MT WASHINGTON  NOT AVBL
$$

VTZ005-007-008-231300-
VERMONT

CITY           SKY/WX    TMP DP  RH WIND       PRES   REMARKS
ST JOHNSBURY     N/A     59  58  96 MISG      30.17R
MONTPELIER     CLOUDY    59  59 100 CALM      30.22R
BURLINGTON     PTSUNNY   63  59  87 E3        30.15S
$$

MAZ007-012-024-CTZ003-RIZ002-NYZ038-NYZ072-231300-
SOUTHERN NEW ENGLAND AND NY

CITY           SKY/WX    TMP DP  RH WIND       PRES   REMARKS
BOSTON         MOSUNNY   64  58  80 N7        30.13R
WORCESTER      CLOUDY    58  55  90 N9        30.14R
NANTUCKET      SUNNY     67  60  78 N14       30.06S
PROVIDENCE     PTSUNNY   66  59  78 NE13      30.11R
HARTFORD       PTSUNNY   64  58  80 N8        30.11R
ALBANY         CLOUDY    64  61  90 CALM      30.12R
NEW YORK CITY  PTSUNNY   68  60  75 E12       30.08R
$$

ANZ081-ANZ082-ANZ150-NHZ014-MEZ023>029-231300-
COASTAL MARINE OBSERVATIONS

STATION/POSITION TIME  TEMP    WIND        PRES    WAVE
                       AIR SEA DIR/SP/G            HT/PER
                 (UTC) (F)     (DEG/KT/KT) (MB)    (FT/S)
MATINICUS ROCK   1100           40/ 10/ 10 1019.5R
PORTLAND WX BUOY 1150   61 61   10/  8/ 10 1020.3R   2/ 7
WELLS            1100   60 62  360/  6/  7 1019.3R
ISLE OF SHOALS   1100   61      10/ 10/ 11 1019.5R
JEFFREYS LEDGE   1121      65                N/A     3/ 8
CASHES LEDGE BUO 1150   63 66              1019.1R   3/ 8
$$

.............KEY..............
   WCI - WIND CHILL
   TC  - TEMPERATURE IN CELSIUS
   VSB - VISIBILITY IN MILES
   HX  - HEAT INDEX
   FAIR- INDICATES FEW OR NO CLOUDS BELOW 12,000 FT, WITH NO
         SIGNIFICANT WEATHER AND/OR OBSTRUCTIONS TO VISIBILITY.





USA.gov is the U.S. government's official web portal to all federal, state and local government web resources and services.